Wind_Speed
55 61 66 65 63 59 60 63 60 51 49 53 52 51 56 55 59 60 64 68 72 70 71 72 69 64 67 63 64 65 54 55 68 75 84 87 84 76 68 63 57 56 56 51 46
62 65 64 58 49 50 51 52 50 50 49 50 52 57 61 63 65 68 69 66 64 64 65 69 70 65 63 61 62 68 57 59 75 87 65 80 87 79 71 65 62 60 55 52 47
63 57 50 56 58 57 56 54 50 51 54 57 60 61 64 66 66 68 64 61 60 59 62 65 70 68 63 60 59 65 58 68 78 88 78 85 89 78 72 70 69 65 60 55 49
48 47 41 39 43 41 39 45 48 50 52 53 53 55 58 60 57 60 58 57 56 56 58 63 68 69 66 59 57 60 62 71 76 93 93 84 83 78 71 71 70 66 59 57 54
50 47 49 43 45 44 44 42 41 43 47 47 46 49 56 61 57 56 56 55 56 53 55 58 64 69 63 62 58 58 65 71 81 92 96 84 70 78 70 75 75 72 65 61 59
55 58 54 55 56 56 54 50 53 51 52 51 51 53 60 74 62 60 57 55 55 54 53 54 60 65 60 63 60 62 64 71 82 95 103 80 76 68 69 72 78 74 69 64 59
61 60 59 60 59 64 65 65 64 61 60 58 55 57 62 79 62 64 60 57 56 55 51 50 55 62 58 60 59 62 63 75 83 96 112 92 88 73 71 72 74 75 72 67 63
67 65 65 65 69 69 72 72 71 69 69 66 65 63 65 78 72 65 61 59 57 56 51 49 50 58 55 58 53 53 62 76 93 101 112 102 81 77 72 68 73 76 74 70 66
69 70 69 70 72 73 78 75 77 77 75 73 71 74 72 76 75 70 66 57 58 56 47 47 45 53 53 53 49 43 49 72 102 104 107 92 78 79 78 74 70 73 74 71 67
78 74 76 78 79 79 83 86 86 84 78 78 76 79 77 75 76 69 68 60 58 55 47 44 43 51 49 49 45 48 54 78 113 111 107 90 86 82 82 78 73 74 77 73 69
80 78 80 84 85 88 89 92 93 90 87 86 84 80 85 83 71 67 67 64 60 53 50 41 41 50 44 45 46 47 56 79 117 117 114 101 92 90 83 79 78 73 76 71 71
80 84 88 89 92 99 97 100 99 97 90 86 88 80 86 78 62 68 67 66 62 53 49 44 39 49 42 44 44 44 55 80 118 113 114 104 99 91 80 71 75 74 69 71 72
85 87 89 91 105 103 99 102 101 101 97 86 87 81 77 79 66 65 70 67 61 54 52 42 46 50 41 42 42 45 54 83 122 124 112 104 100 97 79 80 81 75 69 67 67
85 96 104 105 102 97 99 102 101 103 100 89 83 70 82 80 69 70 66 67 58 56 53 38 54 47 38 44 37 41 62 90 127 130 128 115 102 98 89 86 82 78 73 68 62
97 117 96 97 91 92 99 100 102 101 94 84 85 73 70 71 70 68 65 63 58 58 53 51 53 46 37 46 31 36 59 88 128 126 123 122 110 94 93 84 78 75 72 69 70
115 112 102 102 97 90 93 97 95 94 84 89 78 70 65 66 61 62 63 62 60 56 54 56 52 44 43 46 35 34 55 85 127 129 130 117 103 102 94 80 70 75 79 81 75
112 110 108 98 95 95 92 91 92 83 86 80 76 68 60 62 64 56 60 59 58 56 56 59 50 47 46 46 39 32 55 84 118 136 130 125 114 103 96 93 81 81 80 83 82
121 110 103 97 93 94 92 89 84 84 80 80 70 62 60 58 61 56 56 59 57 57 58 56 51 50 51 45 44 35 52 76 103 132 129 134 119 104 94 95 89 81 85 89 87
109 98 97 94 91 90 90 86 87 87 82 76 71 62 59 59 57 59 55 59 59 57 54 56 52 50 47 44 46 36 42 70 93 131 138 134 124 113 101 98 92 89 88 82 81
103 95 96 90 89 88 86 84 87 88 83 77 70 66 59 59 58 57 55 58 62 59 57 55 54 48 45 42 45 37 47 61 87 124 137 133 121 122 110 98 98 91 80 82 84
103 91 92 87 87 87 84 85 85 87 86 80 73 68 64 59 61 59 55 58 62 61 56 55 50 47 42 39 52 37 41 54 75 110 133 131 113 118 113 108 100 89 87 78 84
101 93 94 89 87 89 86 85 85 87 88 85 81 73 67 63 60 61 59 60 64 60 54 58 55 52 44 42 43 37 38 51 72 96 126 129 115 120 111 106 99 94 89 86 85
104 97 98 92 86 83 83 83 83 84 90 87 87 81 74 68 63 64 63 64 62 58 58 61 51 51 43 38 39 42 40 47 68 95 124 135 125 121 114 110 102 98 93 90 88
109 101 95 94 86 79 74 76 74 74 80 85 84 81 79 73 70 64 63 63 64 61 62 59 51 47 43 44 48 43 36 47 64 85 114 129 131 125 122 115 110 106 99 96 90
110 102 95 90 81 75 69 66 66 66 66 75 77 77 78 72 71 68 65 66 67 66 65 58 51 50 51 50 46 44 36 41 57 73 96 124 133 130 125 119 118 114 103 94 97
105 97 88 79 74 71 66 62 62 59 58 65 67 70 74 72 67 69 66 70 70 67 67 63 52 54 55 55 50 41 34 27 42 65 83 124 135 132 129 124 121 115 105 104 97
102 88 79 69 64 61 59 54 50 50 55 56 54 62 67 65 66 71 64 69 73 71 71 63 54 56 54 57 53 35 31 30 38 56 75 113 131 138 133 130 126 120 118 111 109
Wind_Direction
289 293 297 297 293 293 290 290 289 284 285 282 280 278 281 284 282 286 284 282 282 279 277 273 270 262 258 258 254 255 248 234 232 216 232 230 229 226 225 224 221 222 225 223 222
290 294 292 294 296 295 296 295 294 288 286 287 288 287 286 284 286 285 287 284 282 277 274 272 270 263 260 255 255 252 243 237 235 228 228 231 229 224 221 222 222 222 221 222 221
292 293 292 291 294 295 293 291 289 289 287 288 289 287 286 285 286 285 284 282 280 276 273 269 268 266 261 260 254 245 238 232 234 224 206 224 227 222 221 219 222 222 220 219 221
296 294 298 301 302 304 307 298 291 289 288 290 290 290 290 294 288 288 284 281 279 277 271 268 266 266 264 263 255 245 235 228 230 222 216 214 225 223 219 220 222 224 224 223 223
316 307 314 312 316 316 314 307 303 305 302 300 305 305 310 306 297 289 285 282 278 277 271 270 267 267 267 265 261 248 233 227 228 220 205 210 218 218 215 220 224 222 221 224 223
315 316 314 316 316 318 320 315 314 312 319 313 306 307 311 305 302 293 289 284 282 279 274 272 268 269 268 264 264 251 234 225 223 217 204 199 208 211 214 218 223 222 221 223 224
314 316 315 315 315 317 316 315 312 314 316 317 316 313 313 303 300 294 289 286 280 279 279 272 273 274 272 269 263 249 234 225 222 217 209 201 205 202 207 215 219 223 220 221 223
311 312 311 311 309 313 315 312 310 312 312 315 317 315 316 304 300 294 288 285 284 278 280 276 276 277 276 274 267 247 230 220 216 214 203 201 201 200 202 212 219 219 219 219 222
314 309 309 309 309 308 309 310 312 310 308 312 310 312 313 305 300 292 287 283 283 278 279 279 277 276 277 278 270 252 225 211 210 210 199 196 198 199 204 206 214 217 218 219 221
310 311 310 307 306 305 306 307 308 306 306 306 308 307 308 304 295 289 288 281 277 277 275 275 277 273 276 281 272 245 216 204 200 204 192 191 195 200 200 204 211 218 216 217 219
304 305 308 306 305 303 303 304 302 301 304 304 305 305 305 301 292 288 282 276 271 272 273 272 275 270 274 277 272 254 219 202 196 198 197 196 191 198 198 201 207 212 214 215 218
305 304 304 302 305 302 299 300 298 296 299 299 301 303 302 294 288 279 275 271 267 269 269 267 271 270 272 276 269 248 230 203 197 196 191 189 192 195 192 197 207 209 209 216 218
305 307 303 300 301 299 297 296 294 294 295 298 298 298 292 287 278 275 271 267 267 266 267 266 270 265 270 272 265 244 226 206 196 193 191 193 194 194 187 196 204 208 204 209 213
300 301 300 299 299 297 294 293 293 293 293 297 295 286 287 282 276 272 270 270 268 264 265 266 265 263 267 268 261 248 218 205 197 196 196 199 196 196 190 196 203 204 208 207 210
302 307 309 301 297 297 292 290 289 289 293 293 289 282 277 275 277 277 275 271 265 262 262 261 263 257 267 260 262 250 221 206 197 197 198 198 199 195 194 194 201 207 208 209 211
311 311 311 308 301 296 292 290 290 290 294 288 284 281 280 277 268 270 270 267 265 260 257 257 260 258 255 262 259 246 228 210 199 198 197 196 195 197 193 193 199 207 211 214 213
319 312 311 306 300 298 295 292 291 293 287 283 284 284 275 271 270 267 266 264 262 260 255 255 258 255 253 256 256 246 228 214 205 200 199 199 199 197 194 196 198 206 212 214 214
319 313 309 305 301 297 295 294 293 289 285 283 283 279 276 269 267 262 260 262 259 256 254 255 255 250 252 255 255 247 232 218 211 203 199 200 197 196 196 199 203 205 213 215 215
318 311 306 302 298 295 293 292 289 286 286 285 282 274 270 265 262 259 255 257 258 252 251 249 250 245 247 253 254 258 235 222 211 205 202 203 198 200 204 202 204 207 213 217 221
317 311 303 301 298 294 291 289 286 286 284 281 278 273 266 261 257 254 251 254 254 251 248 249 248 245 245 250 255 256 242 222 214 207 204 206 201 203 207 204 204 206 215 218 221
315 310 303 300 296 292 291 289 285 283 282 279 274 269 264 256 253 251 245 248 250 250 248 248 247 244 241 246 248 254 252 226 216 210 204 204 199 201 201 203 204 207 210 214 220
313 310 306 301 299 294 291 287 282 278 276 272 271 266 260 256 250 248 245 243 245 246 245 243 239 237 235 244 252 256 249 230 216 214 205 204 196 198 201 202 205 208 209 212 219
313 310 307 304 300 295 291 285 278 274 272 269 266 265 261 253 248 246 242 241 244 244 243 242 241 238 232 237 250 249 244 224 221 212 205 202 196 200 201 204 207 209 212 212 222
314 312 310 307 303 298 291 286 280 273 267 265 264 261 259 254 250 242 239 239 239 239 240 239 236 236 237 233 238 250 255 229 218 215 205 202 200 204 206 205 209 211 213 216 219
314 313 312 308 304 298 295 289 283 274 268 263 259 257 256 253 251 242 236 234 234 236 237 236 230 230 235 234 235 243 245 242 224 210 212 201 201 204 206 207 211 210 212 214 220
315 313 312 307 300 297 295 287 279 276 269 262 257 254 252 249 248 246 234 228 230 233 234 235 226 225 231 237 234 237 246 249 239 218 208 203 199 204 206 208 209 211 213 218 220
315 313 310 305 297 294 290 287 280 271 265 261 254 251 247 242 240 240 236 229 224 227 231 232 226 223 224 235 236 236 252 243 227 223 213 204 201 206 206 209 212 212 214 218 221
Height
10742 10737 10732 10727 10722 10717 10712 10707 10702 10698 10695 10692 10689 10685 10681 10676 10672 10668 10664 10659 10655 10651 10647 10644 10648 10655 10655 10660 10664 10667 10682 10695 10703 10716 10714 10724 10730 10744 10757 10766 10774 10778 10783 10795 10801
10730 10725 10720 10714 10709 10704 10699 10695 10691 10687 10683 10680 10677 10672 10667 10661 10657 10652 10649 10642 10637 10634 10630 10627 10627 10634 10637 10644 10647 10650 10667 10677 10684 10696 10707 10712 10717 10731 10745 10757 10761 10766 10776 10785 10791
10718 10713 10707 10703 10697 10692 10687 10683 10678 10675 10671 10668 10663 10657 10652 10644 10641 10633 10631 10625 10619 10616 10614 10610 10609 10612 10619 10626 10629 10634 10651 10654 10660 10676 10685 10693 10705 10720 10734 10742 10746 10754 10765 10776 10782
10708 10702 10696 10689 10685 10680 10675 10671 10667 10663 10658 10653 10648 10642 10636 10626 10625 10614 10613 10608 10603 10598 10597 10595 10591 10593 10599 10607 10608 10616 10625 10634 10639 10651 10666 10680 10691 10708 10722 10731 10738 10748 10761 10768 10773
10697 10691 10685 10679 10674 10670 10664 10659 10654 10649 10644 10638 10633 10628 10620 10608 10606 10600 10594 10590 10585 10582 10579 10577 10574 10573 10582 10585 10589 10597 10604 10613 10620 10634 10645 10658 10674 10690 10707 10718 10722 10732 10746 10753 10761
10685 10679 10674 10668 10662 10657 10651 10645 10639 10634 10629 10624 10620 10614 10606 10587 10592 10582 10576 10574 10567 10565 10562 10559 10557 10555 10563 10565 10569 10570 10579 10592 10600 10615 10624 10643 10655 10673 10692 10701 10707 10721 10734 10743 10750
10673 10665 10659 10653 10648 10642 10636 10630 10624 10620 10614 10608 10603 10599 10595 10563 10575 10565 10561 10556 10554 10547 10546 10543 10539 10536 10541 10543 10546 10548 10557 10568 10581 10593 10611 10622 10631 10659 10674 10687 10698 10708 10721 10732 10739
10660 10652 10645 10639 10632 10626 10620 10611 10606 10604 10597 10591 10585 10582 10582 10553 10552 10550 10545 10540 10537 10533 10530 10528 10525 10519 10519 10519 10520 10523 10531 10544 10558 10574 10592 10608 10639 10645 10663 10679 10688 10694 10706 10718 10728
10646 10639 10631 10623 10615 10611 10602 10595 10588 10586 10579 10574 10568 10562 10563 10548 10534 10530 10527 10527 10521 10517 10517 10512 10511 10506 10504 10501 10501 10503 10511 10528 10540 10563 10582 10604 10621 10634 10647 10658 10671 10683 10694 10706 10715
10628 10622 10613 10605 10598 10592 10584 10576 10570 10566 10563 10557 10550 10541 10539 10533 10518 10515 10509 10507 10504 10502 10501 10500 10496 10492 10493 10490 10487 10484 10489 10504 10521 10541 10571 10592 10605 10613 10625 10639 10653 10668 10681 10693 10703
10612 10605 10598 10586 10578 10571 10564 10557 10550 10543 10543 10536 10529 10527 10512 10506 10504 10498 10491 10485 10485 10488 10484 10488 10482 10475 10483 10480 10473 10475 10480 10488 10506 10526 10551 10569 10578 10589 10605 10620 10638 10655 10670 10683 10693
10594 10588 10580 10567 10558 10549 10545 10537 10527 10519 10528 10518 10510 10505 10489 10478 10488 10473 10469 10466 10466 10471 10471 10473 10471 10462 10469 10466 10461 10461 10473 10483 10496 10514 10535 10546 10558 10570 10590 10613 10628 10640 10654 10668 10679
10575 10569 10562 10550 10532 10522 10517 10508 10497 10490 10493 10508 10494 10479 10467 10454 10461 10459 10446 10447 10453 10455 10454 10460 10454 10449 10454 10453 10448 10447 10464 10474 10486 10504 10524 10533 10539 10558 10581 10599 10615 10629 10645 10653 10668
10551 10545 10539 10530 10507 10495 10488 10480 10471 10461 10459 10479 10466 10463 10442 10433 10438 10432 10436 10431 10440 10439 10440 10448 10432 10439 10444 10438 10439 10440 10444 10450 10462 10480 10507 10519 10537 10557 10573 10591 10605 10620 10634 10649 10660
10531 10512 10503 10491 10484 10468 10454 10450 10442 10435 10431 10441 10434 10431 10427 10418 10415 10414 10417 10416 10420 10421 10427 10427 10419 10426 10431 10426 10431 10426 10429 10438 10452 10469 10487 10505 10522 10555 10562 10577 10600 10615 10626 10637 10647
10507 10478 10470 10457 10443 10443 10432 10418 10412 10409 10417 10396 10401 10405 10405 10396 10399 10396 10393 10396 10397 10403 10407 10407 10406 10414 10414 10414 10418 10415 10422 10429 10441 10458 10470 10497 10520 10534 10559 10595 10603 10605 10615 10625 10635
10475 10447 10435 10429 10414 10402 10398 10390 10383 10390 10376 10373 10375 10380 10382 10376 10372 10380 10376 10377 10378 10385 10388 10387 10395 10398 10400 10402 10407 10406 10408 10417 10424 10436 10468 10487 10497 10534 10562 10571 10580 10591 10600 10611 10620
10444 10421 10400 10393 10383 10371 10365 10357 10356 10351 10351 10342 10355 10360 10357 10357 10353 10360 10360 10358 10361 10365 10369 10374 10379 10383 10382 10389 10394 10396 10397 10406 10421 10439 10466 10465 10500 10532 10551 10553 10566 10578 10585 10591 10606
10413 10396 10373 10361 10352 10345 10334 10333 10322 10318 10320 10326 10326 10333 10333 10333 10336 10336 10342 10339 10340 10346 10354 10356 10363 10369 10372 10376 10380 10384 10387 10389 10406 10425 10438 10461 10502 10512 10531 10540 10552 10565 10575 10593 10605
10379 10368 10343 10336 10321 10310 10305 10303 10292 10285 10290 10296 10301 10304 10311 10310 10311 10317 10321 10321 10318 10328 10335 10343 10348 10356 10360 10367 10368 10370 10363 10375 10390 10404 10429 10452 10491 10509 10522 10533 10542 10556 10572 10581 10588
10344 10336 10313 10309 10293 10278 10276 10270 10266 10257 10257 10264 10272 10276 10281 10289 10289 10295 10302 10302 10299 10306 10321 10326 10337 10341 10350 10357 10349 10359 10358 10364 10378 10391 10418 10440 10481 10490 10504 10517 10530 10543 10556 10568 10574
10307 10300 10279 10270 10264 10247 10242 10240 10238 10231 10227 10231 10236 10246 10255 10262 10271 10274 10281 10281 10279 10292 10307 10307 10315 10322 10336 10341 10344 10348 10345 10351 10360 10381 10409 10434 10465 10473 10491 10505 10516 10531 10545 10553 10557
10267 10262 10242 10232 10225 10215 10204 10201 10200 10201 10193 10200 10204 10214 10227 10241 10250 10253 10260 10261 10270 10280 10285 10290 10311 10314 10325 10332 10333 10331 10331 10338 10348 10359 10385 10413 10447 10457 10476 10493 10506 10520 10530 10539 10548
10229 10220 10208 10195 10183 10176 10169 10160 10159 10162 10164 10165 10175 10187 10195 10210 10221 10235 10243 10247 10251 10261 10264 10275 10296 10306 10314 10316 10315 10322 10326 10327 10334 10348 10375 10408 10433 10447 10464 10478 10491 10504 10515 10527 10537
10197 10184 10170 10158 10147 10140 10136 10132 10127 10129 10137 10133 10145 10155 10163 10184 10194 10210 10224 10228 10234 10240 10249 10263 10284 10291 10293 10299 10306 10311 10317 10321 10328 10345 10363 10401 10414 10431 10448 10463 10474 10486 10501 10514 10523
10166 10153 10144 10131 10120 10112 10106 10105 10103 10104 10108 10109 10121 10128 10137 10160 10169 10185 10202 10208 10215 10227 10233 10245 10269 10276 10282 10284 10295 10305 10313 10323 10331 10338 10354 10371 10397 10413 10427 10444 10458 10475 10489 10499 10509
10132 10126 10118 10107 10095 10091 10084 10085 10083 10084 10081 10085 10098 10102 10112 10129 10147 10161 10178 10188 10198 10208 10215 10232 10253 10263 10274 10274 10284 10305 10306 10310 10319 10326 10341 10360 10394 10394 10407 10425 10442 10456 10469 10479 10491